[{"OBJECT_NAME":"STARLINK-34366","OBJECT_ID":"2025-120AB","EPOCH":"2026-09-11T12:15:55.474272","MEAN_MOTION":15.34398403,"ECCENTRICITY":0.00011382,"INCLINATION":53.159,"RA_OF_ASC_NODE":331.6283,"ARG_OF_PERICENTER":88.5232,"MEAN_ANOMALY":271.5901,"EPHEMERIS_TYPE":0,"CLASSIFICATION_TYPE":"U","NORAD_CAT_ID":64281,"ELEMENT_SET_NO":999,"REV_AT_EPOCH":7234,"BSTAR":0.00024181644,"MEAN_MOTION_DOT":0.00007802,"MEAN_MOTION_DDOT":0},{"OBJECT_NAME":"STARLINK-34381","OBJECT_ID":"2025-120AC","EPOCH":"2026-09-12T04:51:27.147456","MEAN_MOTION":15.3440381,"ECCENTRICITY":0.00013083,"INCLINATION":53.1598,"RA_OF_ASC_NODE":328.8311,"ARG_OF_PERICENTER":105.6577,"MEAN_ANOMALY":254.457,"EPHEMERIS_TYPE":0,"CLASSIFICATION_TYPE":"U","NORAD_CAT_ID":64282,"ELEMENT_SET_NO":999,"REV_AT_EPOCH":7247,"BSTAR":0.00041687536,"MEAN_MOTION_DOT":0.00013736,"MEAN_MOTION_DDOT":0},{"OBJECT_NAME":"HULIANWANG DIGUI-30","OBJECT_ID":"2025-121A","EPOCH":"2026-09-12T06:36:32.768928","MEAN_MOTION":13.24410288,"ECCENTRICITY":0.00015902,"INCLINATION":86.5049,"RA_OF_ASC_NODE":344.1899,"ARG_OF_PERICENTER":107.2877,"MEAN_ANOMALY":252.8431,"EPHEMERIS_TYPE":0,"CLASSIFICATION_TYPE":"U","NORAD_CAT_ID":64283,"ELEMENT_SET_NO":999,"REV_AT_EPOCH":6168,"BSTAR":0.00012260286,"MEAN_MOTION_DOT":6.7e-7,"MEAN_MOTION_DDOT":0},{"OBJECT_NAME":"HULIANWANG DIGUI-31","OBJECT_ID":"2025-121B","EPOCH":"2026-09-12T06:25:26.464224","MEAN_MOTION":13.24411717,"ECCENTRICITY":0.00015986,"INCLINATION":86.507,"RA_OF_ASC_NODE":344.2807,"ARG_OF_PERICENTER":106.1081,"MEAN_ANOMALY":254.0229,"EPHEMERIS_TYPE":0,"CLASSIFICATION_TYPE":"U","NORAD_CAT_ID":64284,"ELEMENT_SET_NO":999,"REV_AT_EPOCH":6168,"BSTAR":0.00012563287,"MEAN_MOTION_DOT":6.9e-7,"MEAN_MOTION_DDOT":0},{"OBJECT_NAME":"HULIANWANG DIGUI-32","OBJECT_ID":"2025-121C","EPOCH":"2026-09-12T06:14:34.077696","MEAN_MOTION":13.24412182,"ECCENTRICITY":0.00016582,"INCLINATION":86.5011,"RA_OF_ASC_NODE":344.0046,"ARG_OF_PERICENTER":102.0702,"MEAN_ANOMALY":258.0618,"EPHEMERIS_TYPE":0,"CLASSIFICATION_TYPE":"U","NORAD_CAT_ID":64285,"ELEMENT_SET_NO":999,"REV_AT_EPOCH":6168,"BSTAR":0.00012681193,"MEAN_MOTION_DOT":6.9e-7,"MEAN_MOTION_DDOT":0},{"OBJECT_NAME":"HULIANWANG DIGUI-33","OBJECT_ID":"2025-121D","EPOCH":"2026-09-12T06:03:43.598880","MEAN_MOTION":13.24411772,"ECCENTRICITY":0.0001578,"INCLINATION":86.5069,"RA_OF_ASC_NODE":344.2688,"ARG_OF_PERICENTER":106.223,"MEAN_ANOMALY":253.9078,"EPHEMERIS_TYPE":0,"CLASSIFICATION_TYPE":"U","NORAD_CAT_ID":64286,"ELEMENT_SET_NO":999,"REV_AT_EPOCH":6168,"BSTAR":0.000086689681,"MEAN_MOTION_DOT":5.2e-7,"MEAN_MOTION_DDOT":0},{"OBJECT_NAME":"HULIANWANG DIGUI-34","OBJECT_ID":"2025-121E","EPOCH":"2026-09-12T05:52:51.205440","MEAN_MOTION":13.24412384,"ECCENTRICITY":0.00014106,"INCLINATION":86.5047,"RA_OF_ASC_NODE":344.162,"ARG_OF_PERICENTER":116.8822,"MEAN_ANOMALY":243.2456,"EPHEMERIS_TYPE":0,"CLASSIFICATION_TYPE":"U","NORAD_CAT_ID":64287,"ELEMENT_SET_NO":999,"REV_AT_EPOCH":6168,"BSTAR":0.00005580193,"MEAN_MOTION_DOT":3.9e-7,"MEAN_MOTION_DDOT":0},{"OBJECT_NAME":"SXM-10","OBJECT_ID":"2025-122A","EPOCH":"2026-09-12T03:05:21.491808","MEAN_MOTION":1.00272819,"ECCENTRICITY":0.00014384,"INCLINATION":0.024,"RA_OF_ASC_NODE":60.2716,"ARG_OF_PERICENTER":291.6443,"MEAN_ANOMALY":289.3994,"EPHEMERIS_TYPE":0,"CLASSIFICATION_TYPE":"U","NORAD_CAT_ID":64290,"ELEMENT_SET_NO":999,"REV_AT_EPOCH":455,"BSTAR":0,"MEAN_MOTION_DOT":-3.2e-7,"MEAN_MOTION_DDOT":0},{"OBJECT_NAME":"STARLINK-34448","OBJECT_ID":"2025-123A","EPOCH":"2026-09-11T22:38:47.047776","MEAN_MOTION":15.29607817,"ECCENTRICITY":0.00040577,"INCLINATION":69.9983,"RA_OF_ASC_NODE":83.4156,"ARG_OF_PERICENTER":260.9014,"MEAN_ANOMALY":99.1702,"EPHEMERIS_TYPE":0,"CLASSIFICATION_TYPE":"U","NORAD_CAT_ID":64291,"ELEMENT_SET_NO":999,"REV_AT_EPOCH":7077,"BSTAR":0.00050172084,"MEAN_MOTION_DOT":0.00014336,"MEAN_MOTION_DDOT":0},{"OBJECT_NAME":"STARLINK-34362","OBJECT_ID":"2025-123B","EPOCH":"2026-09-11T22:21:55.382400","MEAN_MOTION":15.29583626,"ECCENTRICITY":0.00033308,"INCLINATION":69.9994,"RA_OF_ASC_NODE":83.7695,"ARG_OF_PERICENTER":266.6136,"MEAN_ANOMALY":93.4658,"EPHEMERIS_TYPE":0,"CLASSIFICATION_TYPE":"U","NORAD_CAT_ID":64292,"ELEMENT_SET_NO":999,"REV_AT_EPOCH":7076,"BSTAR":0.0003263769,"MEAN_MOTION_DOT":0.00009267,"MEAN_MOTION_DDOT":0},{"OBJECT_NAME":"STARLINK-34428","OBJECT_ID":"2025-123C","EPOCH":"2026-09-12T06:56:54.324960","MEAN_MOTION":15.30430375,"ECCENTRICITY":0.00032061,"INCLINATION":69.9997,"RA_OF_ASC_NODE":82.6068,"ARG_OF_PERICENTER":270.9534,"MEAN_ANOMALY":89.1274,"EPHEMERIS_TYPE":0,"CLASSIFICATION_TYPE":"U","NORAD_CAT_ID":64293,"ELEMENT_SET_NO":999,"REV_AT_EPOCH":7082,"BSTAR":0.00043891461,"MEAN_MOTION_DOT":0.00012845,"MEAN_MOTION_DDOT":0},{"OBJECT_NAME":"STARLINK-34388","OBJECT_ID":"2025-123D","EPOCH":"2026-09-11T22:56:01.564224","MEAN_MOTION":15.2958619,"ECCENTRICITY":0.0003233,"INCLINATION":69.9995,"RA_OF_ASC_NODE":83.4476,"ARG_OF_PERICENTER":269.631,"MEAN_ANOMALY":90.4495,"EPHEMERIS_TYPE":0,"CLASSIFICATION_TYPE":"U","NORAD_CAT_ID":64294,"ELEMENT_SET_NO":999,"REV_AT_EPOCH":7077,"BSTAR":0.00034201656,"MEAN_MOTION_DOT":0.00009719,"MEAN_MOTION_DDOT":0},{"OBJECT_NAME":"STARLINK-34424","OBJECT_ID":"2025-123E","EPOCH":"2026-09-11T22:57:43.306272","MEAN_MOTION":15.29588379,"ECCENTRICITY":0.00033086,"INCLINATION":69.9994,"RA_OF_ASC_NODE":83.4454,"ARG_OF_PERICENTER":270.1644,"MEAN_ANOMALY":89.9152,"EPHEMERIS_TYPE":0,"CLASSIFICATION_TYPE":"U","NORAD_CAT_ID":64295,"ELEMENT_SET_NO":999,"REV_AT_EPOCH":7077,"BSTAR":0.00029228849,"MEAN_MOTION_DOT":0.00008286,"MEAN_MOTION_DDOT":0},{"OBJECT_NAME":"STARLINK-34443","OBJECT_ID":"2025-123F","EPOCH":"2026-09-11T22:53:48.655104","MEAN_MOTION":15.29590966,"ECCENTRICITY":0.00033438,"INCLINATION":69.9993,"RA_OF_ASC_NODE":83.4469,"ARG_OF_PERICENTER":268.9969,"MEAN_ANOMALY":91.0823,"EPHEMERIS_TYPE":0,"CLASSIFICATION_TYPE":"U","NORAD_CAT_ID":64296,"ELEMENT_SET_NO":999,"REV_AT_EPOCH":7077,"BSTAR":0.00032106999,"MEAN_MOTION_DOT":0.00009116,"MEAN_MOTION_DDOT":0},{"OBJECT_NAME":"STARLINK-34369","OBJECT_ID":"2025-123G","EPOCH":"2026-09-11T19:04:50.553120","MEAN_MOTION":15.2958588,"ECCENTRICITY":0.00031896,"INCLINATION":70,"RA_OF_ASC_NODE":84.0886,"ARG_OF_PERICENTER":267.1168,"MEAN_ANOMALY":92.9642,"EPHEMERIS_TYPE":0,"CLASSIFICATION_TYPE":"U","NORAD_CAT_ID":64297,"ELEMENT_SET_NO":999,"REV_AT_EPOCH":6952,"BSTAR":0.00028533303,"MEAN_MOTION_DOT":0.00008085,"MEAN_MOTION_DDOT":0},{"OBJECT_NAME":"STARLINK-34391","OBJECT_ID":"2025-123H","EPOCH":"2026-09-11T22:55:04.090944","MEAN_MOTION":15.2959009,"ECCENTRICITY":0.00037954,"INCLINATION":69.9995,"RA_OF_ASC_NODE":83.4468,"ARG_OF_PERICENTER":268.4441,"MEAN_ANOMALY":91.63,"EPHEMERIS_TYPE":0,"CLASSIFICATION_TYPE":"U","NORAD_CAT_ID":64298,"ELEMENT_SET_NO":999,"REV_AT_EPOCH":6955,"BSTAR":0.00027266875,"MEAN_MOTION_DOT":0.00007721,"MEAN_MOTION_DDOT":0},{"OBJECT_NAME":"STARLINK-34378","OBJECT_ID":"2025-123J","EPOCH":"2026-09-12T05:37:15.383712","MEAN_MOTION":15.29581582,"ECCENTRICITY":0.0003088,"INCLINATION":70.0004,"RA_OF_ASC_NODE":82.8202,"ARG_OF_PERICENTER":269.5419,"MEAN_ANOMALY":90.5402,"EPHEMERIS_TYPE":0,"CLASSIFICATION_TYPE":"U","NORAD_CAT_ID":64299,"ELEMENT_SET_NO":999,"REV_AT_EPOCH":6959,"BSTAR":0.00022722447,"MEAN_MOTION_DOT":0.0000641,"MEAN_MOTION_DDOT":0},{"OBJECT_NAME":"STARLINK-34376","OBJECT_ID":"2025-123K","EPOCH":"2026-09-11T23:09:12.527712","MEAN_MOTION":15.29595494,"ECCENTRICITY":0.00032086,"INCLINATION":69.9994,"RA_OF_ASC_NODE":83.4841,"ARG_OF_PERICENTER":267.8096,"MEAN_ANOMALY":92.2712,"EPHEMERIS_TYPE":0,"CLASSIFICATION_TYPE":"U","NORAD_CAT_ID":64300,"ELEMENT_SET_NO":999,"REV_AT_EPOCH":6955,"BSTAR":0.00040418235,"MEAN_MOTION_DOT":0.00011514,"MEAN_MOTION_DDOT":0},{"OBJECT_NAME":"STARLINK-34372","OBJECT_ID":"2025-123L","EPOCH":"2026-09-12T05:34:26.078592","MEAN_MOTION":15.29572754,"ECCENTRICITY":0.00030004,"INCLINATION":69.9998,"RA_OF_ASC_NODE":82.8126,"ARG_OF_PERICENTER":265.4485,"MEAN_ANOMALY":94.6347,"EPHEMERIS_TYPE":0,"CLASSIFICATION_TYPE":"U","NORAD_CAT_ID":64301,"ELEMENT_SET_NO":999,"REV_AT_EPOCH":6959,"BSTAR":0.00071459701,"MEAN_MOTION_DOT":0.00020465,"MEAN_MOTION_DDOT":0},{"OBJECT_NAME":"STARLINK-34379","OBJECT_ID":"2025-123M","EPOCH":"2026-09-11T12:44:42.759744","MEAN_MOTION":15.43074181,"ECCENTRICITY":0.00039578,"INCLINATION":70.0008,"RA_OF_ASC_NODE":22.6119,"ARG_OF_PERICENTER":279.674,"MEAN_ANOMALY":80.3995,"EPHEMERIS_TYPE":0,"CLASSIFICATION_TYPE":"U","NORAD_CAT_ID":64302,"ELEMENT_SET_NO":999,"REV_AT_EPOCH":7103,"BSTAR":0.00058839872,"MEAN_MOTION_DOT":0.00026023,"MEAN_MOTION_DDOT":0},{"OBJECT_NAME":"STARLINK-34356","OBJECT_ID":"2025-123N","EPOCH":"2026-09-12T06:11:06.547488","MEAN_MOTION":15.29575712,"ECCENTRICITY":0.00028244,"INCLINATION":70.0009,"RA_OF_ASC_NODE":82.8931,"ARG_OF_PERICENTER":271.2953,"MEAN_ANOMALY":88.7898,"EPHEMERIS_TYPE":0,"CLASSIFICATION_TYPE":"U","NORAD_CAT_ID":64303,"ELEMENT_SET_NO":999,"REV_AT_EPOCH":6959,"BSTAR":0.0002435836,"MEAN_MOTION_DOT":0.0000688,"MEAN_MOTION_DDOT":0},{"OBJECT_NAME":"STARLINK-34360","OBJECT_ID":"2025-123P","EPOCH":"2026-09-11T22:26:08.066976","MEAN_MOTION":15.29587403,"ECCENTRICITY":0.00033744,"INCLINATION":69.9998,"RA_OF_ASC_NODE":83.7734,"ARG_OF_PERICENTER":269.2307,"MEAN_ANOMALY":90.8482,"EPHEMERIS_TYPE":0,"CLASSIFICATION_TYPE":"U","NORAD_CAT_ID":64304,"ELEMENT_SET_NO":999,"REV_AT_EPOCH":6954,"BSTAR":0.0002605774,"MEAN_MOTION_DOT":0.00007372,"MEAN_MOTION_DDOT":0},{"OBJECT_NAME":"STARLINK-34383","OBJECT_ID":"2025-123Q","EPOCH":"2026-09-11T21:36:37.190880","MEAN_MOTION":15.29586928,"ECCENTRICITY":0.00037305,"INCLINATION":69.9991,"RA_OF_ASC_NODE":83.6548,"ARG_OF_PERICENTER":265.3797,"MEAN_ANOMALY":94.6952,"EPHEMERIS_TYPE":0,"CLASSIFICATION_TYPE":"U","NORAD_CAT_ID":64305,"ELEMENT_SET_NO":999,"REV_AT_EPOCH":6954,"BSTAR":0.0003055521,"MEAN_MOTION_DOT":0.00008668,"MEAN_MOTION_DDOT":0}]